Precipitable_Water
0.48 0.52 0.56 0.59 0.61 0.63 0.66 0.68 0.72 0.76 0.82 0.84 0.86 0.86 0.85 0.83 0.82 0.80 0.80 0.80 0.81 0.79 0.78 0.79 0.84 0.86 0.89 0.91 0.91 0.91 0.88 0.73 0.66 0.61 0.55 0.63 0.70 0.77 0.80 0.84 0.87 0.86 0.89 0.81 0.71 0.62 0.52 0.51 0.47 0.54 0.53 0.54 0.52 0.50 0.53 0.46 0.50 0.46 0.32 0.29 0.25 0.26 0.27 0.30 0.29 0.30 0.37 0.35 0.53 0.53 0.62 0.59 0.57 0.72 0.92 1.04 0.99 1.03 1.03 1.01 1.10 1.19 1.20 1.26 1.27 1.28 1.30 1.29
0.47 0.49 0.54 0.58 0.60 0.63 0.65 0.68 0.72 0.76 0.82 0.85 0.88 0.87 0.86 0.86 0.85 0.84 0.82 0.82 0.83 0.81 0.81 0.82 0.86 0.88 0.91 0.93 0.93 0.92 0.82 0.69 0.62 0.57 0.54 0.66 0.70 0.75 0.78 0.83 0.90 0.92 0.89 0.77 0.63 0.56 0.52 0.46 0.46 0.50 0.52 0.46 0.58 0.48 0.51 0.40 0.47 0.35 0.31 0.30 0.25 0.26 0.30 0.36 0.37 0.38 0.37 0.39 0.60 0.54 0.64 0.67 0.67 0.75 0.93 0.86 0.91 0.91 0.91 0.97 1.04 1.06 1.16 1.23 1.29 1.26 1.21 1.21
0.47 0.47 0.53 0.57 0.60 0.62 0.64 0.68 0.72 0.76 0.82 0.86 0.89 0.88 0.88 0.89 0.88 0.86 0.85 0.85 0.85 0.84 0.84 0.85 0.88 0.90 0.92 0.92 0.95 0.94 0.83 0.74 0.71 0.57 0.62 0.70 0.77 0.81 0.84 0.86 0.89 0.95 0.87 0.77 0.68 0.60 0.56 0.52 0.50 0.47 0.52 0.47 0.51 0.46 0.45 0.41 0.39 0.39 0.34 0.27 0.28 0.31 0.36 0.43 0.46 0.42 0.46 0.59 0.53 0.52 0.71 0.75 0.81 0.85 1.06 0.88 0.89 0.92 0.87 0.90 0.97 1.03 1.04 1.13 1.19 1.21 1.16 1.16
0.47 0.48 0.52 0.57 0.60 0.62 0.64 0.67 0.72 0.76 0.83 0.87 0.89 0.90 0.90 0.91 0.90 0.88 0.88 0.87 0.86 0.85 0.87 0.88 0.89 0.90 0.92 0.93 0.94 0.94 0.87 0.76 0.59 0.64 0.78 0.83 0.82 0.88 0.88 0.88 0.91 0.94 0.92 0.83 0.72 0.61 0.64 0.65 0.55 0.49 0.49 0.46 0.48 0.51 0.40 0.43 0.33 0.38 0.35 0.30 0.30 0.38 0.35 0.42 0.44 0.46 0.46 0.51 0.69 0.66 0.74 0.76 0.85 0.92 0.98 0.96 0.85 0.96 0.98 1.04 1.03 1.01 1.09 1.22 1.17 1.14 1.13 1.13
0.48 0.48 0.52 0.57 0.60 0.62 0.64 0.67 0.72 0.76 0.85 0.88 0.90 0.91 0.92 0.93 0.92 0.90 0.90 0.89 0.86 0.85 0.87 0.90 0.90 0.92 0.92 0.93 0.93 0.92 0.75 0.63 0.53 0.75 0.89 0.87 0.81 0.80 0.89 0.89 0.92 0.93 0.89 0.78 0.67 0.64 0.58 0.55 0.53 0.48 0.50 0.44 0.48 0.46 0.42 0.43 0.39 0.40 0.32 0.40 0.39 0.42 0.41 0.45 0.44 0.55 0.47 0.47 0.55 0.78 0.67 0.67 0.93 0.95 0.98 0.96 0.81 0.81 0.95 1.01 1.03 1.08 1.03 1.22 1.15 1.12 1.14 1.11
0.47 0.48 0.51 0.56 0.59 0.62 0.63 0.66 0.71 0.76 0.85 0.89 0.91 0.93 0.94 0.94 0.93 0.91 0.91 0.91 0.88 0.87 0.88 0.90 0.92 0.91 0.93 0.93 0.90 0.84 0.70 0.35 0.66 0.78 1.00 0.95 0.85 0.83 0.88 0.91 0.92 0.90 0.84 0.67 0.59 0.57 0.55 0.52 0.48 0.45 0.46 0.46 0.45 0.39 0.42 0.44 0.41 0.33 0.34 0.39 0.43 0.46 0.39 0.47 0.47 0.56 0.51 0.53 0.54 0.68 0.75 0.80 0.78 0.89 1.06 1.02 0.94 1.10 1.19 1.13 1.10 1.14 1.12 1.27 1.33 1.20 1.13 1.12
0.47 0.48 0.50 0.55 0.59 0.61 0.63 0.66 0.71 0.75 0.84 0.89 0.91 0.93 0.95 0.95 0.93 0.91 0.92 0.92 0.90 0.88 0.89 0.91 0.93 0.92 0.92 0.92 0.85 0.78 0.64 0.62 0.80 0.94 0.94 1.02 0.96 0.89 0.90 0.93 0.91 0.84 0.73 0.61 0.59 0.53 0.54 0.48 0.45 0.44 0.45 0.44 0.48 0.43 0.44 0.44 0.42 0.39 0.34 0.38 0.44 0.45 0.40 0.50 0.58 0.59 0.70 0.72 0.67 0.80 0.94 0.76 0.81 0.80 1.09 1.04 1.08 1.09 1.09 1.21 1.17 1.13 1.15 1.32 1.29 1.24 1.16 1.12
0.47 0.47 0.49 0.54 0.58 0.61 0.63 0.65 0.71 0.74 0.82 0.88 0.90 0.93 0.95 0.96 0.94 0.91 0.92 0.92 0.91 0.90 0.89 0.92 0.94 0.93 0.92 0.82 0.73 0.69 0.62 0.62 0.84 0.99 1.02 1.04 1.04 0.98 0.87 0.85 0.85 0.71 0.65 0.62 0.59 0.55 0.57 0.48 0.42 0.46 0.43 0.43 0.46 0.44 0.48 0.44 0.42 0.35 0.40 0.38 0.40 0.44 0.53 0.58 0.66 0.68 0.72 0.83 0.89 0.94 0.85 0.90 0.95 0.96 1.06 1.02 1.10 1.10 1.09 1.24 1.20 1.19 1.22 1.29 1.28 1.23 1.20 1.17
0.46 0.46 0.48 0.53 0.56 0.61 0.62 0.64 0.70 0.74 0.79 0.87 0.90 0.92 0.95 0.96 0.94 0.91 0.92 0.93 0.92 0.91 0.90 0.92 0.93 0.95 0.95 0.81 0.69 0.65 0.56 0.79 0.93 1.01 1.03 1.04 1.02 1.01 0.90 0.69 0.73 0.65 0.64 0.66 0.69 0.63 0.56 0.48 0.47 0.49 0.43 0.43 0.51 0.41 0.49 0.41 0.35 0.39 0.45 0.43 0.51 0.50 0.55 0.61 0.64 0.69 0.74 0.84 0.90 0.82 0.81 0.87 0.93 1.08 1.01 1.05 1.13 1.19 1.28 1.31 1.21 1.17 1.19 1.22 1.23 1.23 1.19 1.17
0.45 0.46 0.47 0.52 0.55 0.60 0.62 0.64 0.68 0.73 0.77 0.85 0.90 0.92 0.94 0.96 0.95 0.92 0.92 0.94 0.93 0.92 0.91 0.91 0.94 0.94 0.87 0.72 0.67 0.56 0.66 0.96 0.97 1.00 1.01 1.01 0.98 0.94 0.86 0.77 0.74 0.71 0.67 0.66 0.64 0.61 0.58 0.52 0.57 0.50 0.57 0.53 0.53 0.44 0.50 0.42 0.42 0.40 0.44 0.48 0.55 0.60 0.62 0.66 0.72 0.71 0.79 0.85 0.89 0.81 0.80 0.85 0.99 0.94 0.86 1.09 1.17 1.24 1.26 1.23 1.21 1.19 1.16 1.20 1.21 1.23 1.22 1.16
0.44 0.45 0.46 0.51 0.55 0.58 0.62 0.63 0.66 0.72 0.75 0.81 0.89 0.91 0.93 0.95 0.96 0.93 0.93 0.94 0.95 0.94 0.92 0.92 0.96 0.93 0.76 0.75 0.57 0.52 0.83 0.90 0.99 1.01 1.00 1.00 0.96 0.85 0.78 0.80 0.81 0.79 0.76 0.72 0.68 0.63 0.65 0.60 0.64 0.53 0.50 0.49 0.46 0.47 0.51 0.47 0.60 0.43 0.51 0.47 0.61 0.71 0.77 0.78 0.76 0.74 0.80 0.80 0.92 0.89 0.83 0.93 0.97 0.93 0.89 1.02 1.15 1.20 1.08 1.12 1.19 1.20 1.17 1.15 1.21 1.23 1.24 1.17
0.44 0.44 0.46 0.50 0.54 0.57 0.60 0.62 0.64 0.70 0.74 0.77 0.85 0.90 0.92 0.94 0.96 0.95 0.94 0.94 0.97 0.96 0.94 0.93 0.96 0.92 0.81 0.70 0.59 0.59 0.86 0.89 0.99 1.02 1.02 0.98 0.96 0.89 0.84 0.87 0.88 0.85 0.78 0.67 0.67 0.68 0.65 0.61 0.60 0.54 0.50 0.50 0.41 0.47 0.46 0.60 0.60 0.61 0.61 0.49 0.65 0.66 0.58 0.70 0.72 0.81 0.83 0.80 0.95 0.94 0.80 0.75 0.83 0.83 0.99 1.16 1.20 1.15 1.06 1.05 1.16 1.14 1.12 1.08 1.20 1.27 1.18 1.15
0.44 0.44 0.45 0.49 0.53 0.56 0.59 0.61 0.63 0.67 0.71 0.75 0.81 0.88 0.91 0.93 0.96 0.97 0.96 0.94 0.99 0.99 0.97 0.95 0.96 0.93 0.75 0.60 0.61 0.78 0.87 0.95 0.97 1.00 1.01 1.01 0.99 0.98 0.91 0.92 0.93 0.91 0.85 0.74 0.68 0.71 0.71 0.69 0.65 0.58 0.56 0.56 0.52 0.45 0.66 0.64 0.59 0.63 0.65 0.61 0.54 0.54 0.50 0.66 0.77 0.80 0.77 0.83 0.90 0.90 0.54 0.67 0.77 0.92 1.04 1.17 1.17 1.13 1.05 1.05 1.07 1.04 1.02 1.08 1.20 1.18 1.13 1.15
0.44 0.43 0.44 0.47 0.51 0.54 0.58 0.60 0.61 0.64 0.68 0.73 0.80 0.86 0.90 0.92 0.94 0.97 0.98 0.95 0.98 1.00 0.99 1.01 0.97 0.88 0.73 0.57 0.71 0.81 0.90 0.95 0.98 0.94 0.95 0.99 0.94 0.92 0.97 0.97 0.95 0.92 0.88 0.82 0.80 0.81 0.78 0.75 0.71 0.65 0.62 0.57 0.50 0.70 0.57 0.58 0.56 0.51 0.61 0.59 0.49 0.44 0.45 0.68 0.73 0.79 0.69 0.86 0.88 0.88 0.55 0.62 0.77 0.89 1.03 1.12 1.14 1.07 0.97 1.01 1.00 1.00 1.02 1.13 1.18 1.15 1.09 1.11
0.45 0.44 0.43 0.46 0.50 0.53 0.56 0.59 0.60 0.63 0.66 0.71 0.80 0.86 0.88 0.90 0.94 0.97 0.98 0.98 0.99 1.00 1.01 1.01 0.97 0.82 0.66 0.64 0.80 0.90 0.96 0.96 0.86 0.87 0.96 0.91 0.91 0.88 0.90 0.93 0.89 0.87 0.83 0.81 0.77 0.80 0.81 0.81 0.69 0.58 0.51 0.66 0.63 0.53 0.49 0.48 0.58 0.62 0.46 0.42 0.49 0.40 0.51 0.67 0.76 0.74 0.62 0.78 0.88 0.80 0.54 0.62 0.77 0.88 1.06 1.17 1.17 1.09 0.96 0.98 1.00 0.99 1.02 1.12 1.10 1.09 1.06 1.04
0.46 0.45 0.43 0.45 0.49 0.52 0.55 0.58 0.59 0.61 0.64 0.69 0.80 0.88 0.91 0.92 0.94 0.97 0.99 0.99 1.01 1.01 1.01 0.88 0.87 0.82 0.64 0.56 0.75 0.95 0.87 0.74 0.76 0.88 0.95 0.94 0.92 0.85 0.92 0.90 0.90 0.86 0.83 0.78 0.85 0.85 0.82 0.82 0.71 0.63 0.54 0.58 0.51 0.51 0.46 0.47 0.52 0.59 0.49 0.48 0.47 0.50 0.55 0.52 0.67 0.77 0.76 0.71 0.80 0.76 0.55 0.68 0.78 0.98 1.09 1.14 1.15 1.08 0.99 0.94 0.92 0.93 1.02 1.09 1.14 1.06 1.02 1.05
0.45 0.45 0.43 0.44 0.47 0.51 0.54 0.57 0.59 0.61 0.62 0.68 0.82 0.90 0.95 0.95 0.94 0.96 0.99 1.01 1.01 1.02 0.95 0.79 0.86 0.88 0.60 0.72 0.94 0.75 0.71 0.79 0.86 0.84 0.90 0.94 0.92 0.92 0.89 0.86 0.83 0.83 0.82 0.79 0.80 0.79 0.74 0.75 0.64 0.63 0.63 0.59 0.60 0.56 0.39 0.39 0.42 0.51 0.59 0.52 0.60 0.45 0.46 0.45 0.67 0.76 0.75 0.76 0.69 0.77 0.70 0.73 0.83 0.93 1.06 1.11 1.09 1.02 0.94 0.87 0.88 0.94 1.01 1.11 1.04 1.03 1.01 1.02
0.44 0.45 0.44 0.43 0.46 0.50 0.53 0.56 0.58 0.59 0.61 0.70 0.81 0.90 0.94 0.96 0.95 0.98 0.99 1.00 1.00 0.97 0.95 0.97 0.88 0.77 0.64 0.73 0.58 0.62 0.75 0.76 0.79 0.82 0.87 0.93 0.93 0.91 0.88 0.83 0.84 0.85 0.78 0.75 0.73 0.68 0.68 0.61 0.62 0.56 0.58 0.55 0.56 0.48 0.34 0.31 0.42 0.48 0.42 0.42 0.42 0.45 0.54 0.49 0.52 0.65 0.73 0.75 0.70 0.74 0.73 0.73 0.81 0.93 0.99 1.03 1.05 1.00 0.90 0.86 0.86 0.89 1.01 1.05 1.03 1.00 1.01 1.02
0.43 0.45 0.45 0.44 0.45 0.48 0.51 0.55 0.57 0.58 0.60 0.71 0.83 0.93 0.99 1.00 0.97 0.98 0.89 0.88 0.77 0.73 0.68 0.71 0.70 0.48 0.43 0.59 0.72 0.74 0.75 0.78 0.84 0.81 0.77 0.85 0.90 0.89 0.90 0.93 0.87 0.79 0.67 0.64 0.58 0.66 0.65 0.55 0.58 0.54 0.44 0.47 0.49 0.52 0.46 0.47 0.48 0.43 0.43 0.42 0.43 0.43 0.53 0.53 0.63 0.78 0.76 0.62 0.66 0.65 0.63 0.70 0.77 0.83 0.93 0.99 1.02 0.96 0.91 0.94 0.94 0.98 1.02 1.01 1.01 1.01 1.01 1.01
0.43 0.44 0.45 0.44 0.44 0.47 0.50 0.53 0.56 0.57 0.62 0.68 0.76 0.82 0.87 0.76 0.76 0.75 0.82 0.81 0.67 0.63 0.64 0.68 0.73 0.70 0.71 0.71 0.67 0.76 0.84 0.80 0.70 0.74 0.80 0.88 0.84 0.81 0.82 0.86 0.79 0.80 0.69 0.56 0.59 0.63 0.68 0.51 0.47 0.49 0.51 0.50 0.55 0.53 0.53 0.56 0.51 0.50 0.52 0.50 0.45 0.47 0.58 0.69 0.68 0.77 0.83 0.70 0.65 0.63 0.66 0.70 0.75 0.83 0.91 0.97 0.97 0.93 0.93 0.93 0.95 0.97 0.97 0.95 0.96 0.98 1.00 1.00
0.44 0.44 0.45 0.45 0.44 0.46 0.49 0.52 0.55 0.57 0.64 0.68 0.71 0.71 0.58 0.60 0.52 0.51 0.65 0.69 0.72 0.75 0.71 0.72 0.74 0.71 0.69 0.73 0.74 0.73 0.66 0.68 0.69 0.70 0.77 0.89 0.82 0.77 0.71 0.78 0.69 0.62 0.66 0.68 0.63 0.73 0.70 0.54 0.52 0.58 0.61 0.61 0.63 0.62 0.62 0.58 0.57 0.48 0.48 0.44 0.46 0.53 0.51 0.66 0.67 0.77 0.78 0.66 0.57 0.60 0.65 0.67 0.74 0.84 0.88 0.98 0.94 0.87 0.90 0.92 0.92 0.92 0.92 0.96 0.98 0.98 0.97 1.03
0.44 0.44 0.45 0.46 0.45 0.45 0.48 0.51 0.53 0.59 0.64 0.68 0.68 0.62 0.70 0.72 0.78 0.84 0.78 0.58 0.71 0.75 0.75 0.74 0.77 0.72 0.81 0.80 0.79 0.78 0.72 0.61 0.62 0.68 0.79 0.83 0.71 0.65 0.67 0.71 0.64 0.59 0.67 0.67 0.67 0.62 0.58 0.58 0.59 0.66 0.66 0.70 0.66 0.64 0.65 0.56 0.52 0.52 0.47 0.49 0.50 0.52 0.61 0.68 0.70 0.76 0.75 0.66 0.57 0.64 0.65 0.69 0.76 0.83 0.88 0.93 0.96 0.94 0.97 0.95 0.94 0.95 0.96 0.97 0.99 0.99 1.00 1.03
0.44 0.44 0.46 0.46 0.45 0.46 0.47 0.50 0.52 0.61 0.58 0.62 0.59 0.64 0.68 0.84 0.93 0.96 0.89 0.69 0.66 0.74 0.71 0.71 0.69 0.70 0.72 0.81 0.81 0.81 0.64 0.56 0.55 0.68 0.74 0.79 0.68 0.67 0.65 0.63 0.62 0.62 0.65 0.70 0.57 0.56 0.48 0.57 0.66 0.71 0.71 0.66 0.62 0.61 0.63 0.62 0.60 0.52 0.52 0.56 0.46 0.51 0.47 0.46 0.64 0.71 0.74 0.67 0.62 0.67 0.62 0.69 0.77 0.79 0.82 0.93 0.93 1.02 1.03 1.01 1.02 1.03 0.99 0.98 0.99 1.00 0.98 0.99
0.45 0.45 0.46 0.46 0.46 0.46 0.47 0.48 0.53 0.59 0.55 0.54 0.56 0.63 0.78 0.88 0.94 0.93 0.78 0.60 0.55 0.66 0.68 0.71 0.70 0.68 0.68 0.70 0.81 0.81 0.65 0.62 0.66 0.61 0.79 0.81 0.63 0.72 0.70 0.66 0.62 0.62 0.59 0.64 0.64 0.58 0.54 0.64 0.74 0.71 0.69 0.66 0.57 0.59 0.60 0.58 0.56 0.63 0.62 0.59 0.48 0.50 0.53 0.52 0.55 0.67 0.73 0.75 0.78 0.69 0.62 0.64 0.72 0.70 0.73 0.88 0.98 0.96 0.98 1.00 1.01 1.05 1.05 1.05 1.06 1.04 1.02 0.98
0.46 0.46 0.46 0.47 0.46 0.48 0.45 0.47 0.48 0.47 0.50 0.55 0.56 0.70 0.79 0.85 0.93 0.94 0.74 0.64 0.65 0.60 0.73 0.72 0.76 0.68 0.74 0.86 0.86 0.77 0.75 0.74 0.69 0.71 0.77 0.76 0.68 0.68 0.67 0.74 0.71 0.59 0.63 0.67 0.68 0.63 0.60 0.73 0.78 0.72 0.68 0.64 0.60 0.58 0.62 0.61 0.53 0.62 0.67 0.61 0.54 0.53 0.52 0.58 0.64 0.59 0.55 0.57 0.71 0.64 0.47 0.49 0.68 0.75 0.76 0.84 0.88 0.89 0.94 0.90 0.91 0.94 0.96 0.99 0.96 0.96 1.01 1.02
0.46 0.47 0.47 0.47 0.47 0.47 0.47 0.40 0.47 0.43 0.42 0.50 0.57 0.68 0.76 0.85 0.93 0.96 0.76 0.49 0.41 0.49 0.65 0.55 0.76 0.61 0.82 0.69 0.76 0.77 0.80 0.65 0.76 0.75 0.79 0.77 0.81 0.73 0.70 0.64 0.70 0.54 0.61 0.66 0.65 0.65 0.66 0.75 0.75 0.68 0.71 0.68 0.66 0.61 0.64 0.68 0.59 0.55 0.55 0.67 0.61 0.57 0.55 0.54 0.60 0.59 0.47 0.45 0.60 0.73 0.51 0.46 0.64 0.62 0.68 0.75 0.79 0.79 0.88 0.88 0.90 0.93 0.94 0.94 0.93 0.95 0.98 1.00
0.48 0.48 0.48 0.48 0.48 0.49 0.37 0.34 0.42 0.41 0.39 0.50 0.62 0.67 0.73 0.87 1.00 0.92 0.64 0.40 0.37 0.49 0.52 0.61 0.68 0.63 0.79 0.70 0.72 0.75 0.54 0.59 0.82 0.84 0.81 0.82 0.72 0.81 0.65 0.59 0.63 0.64 0.70 0.67 0.68 0.58 0.74 0.71 0.72 0.71 0.67 0.66 0.65 0.59 0.66 0.65 0.56 0.52 0.64 0.68 0.67 0.63 0.59 0.58 0.60 0.60 0.55 0.68 0.69 0.68 0.68 0.52 0.45 0.61 0.68 0.76 0.75 0.76 0.78 0.82 0.86 0.90 0.93 0.92 0.94 0.97 1.00 1.02
0.51 0.50 0.50 0.50 0.49 0.49 0.37 0.37 0.35 0.35 0.37 0.51 0.63 0.64 0.72 0.93 1.00 0.92 0.56 0.28 0.27 0.60 0.50 0.61 0.64 0.80 0.74 0.72 0.72 0.63 0.63 0.72 0.66 0.72 0.86 0.83 0.85 0.71 0.66 0.62 0.61 0.64 0.63 0.62 0.45 0.58 0.71 0.64 0.68 0.64 0.67 0.70 0.63 0.70 0.72 0.73 0.62 0.59 0.70 0.68 0.66 0.68 0.65 0.66 0.62 0.59 0.63 0.61 0.53 0.65 0.69 0.53 0.51 0.57 0.71 0.69 0.66 0.68 0.71 0.77 0.83 0.87 0.90 0.93 0.94 0.97 1.01 1.05
0.52 0.52 0.51 0.50 0.50 0.50 0.49 0.39 0.35 0.35 0.48 0.56 0.61 0.62 0.80 0.99 0.90 0.64 0.40 0.27 0.44 0.53 0.74 0.60 0.84 0.72 0.68 0.70 0.63 0.66 0.66 0.70 0.60 0.70 0.86 0.92 0.86 0.84 0.62 0.64 0.66 0.63 0.67 0.62 0.51 0.57 0.68 0.72 0.71 0.72 0.66 0.60 0.68 0.73 0.75 0.73 0.61 0.70 0.75 0.75 0.70 0.69 0.69 0.67 0.61 0.59 0.59 0.57 0.43 0.52 0.63 0.47 0.47 0.62 0.62 0.67 0.65 0.65 0.68 0.73 0.76 0.83 0.87 0.90 0.94 1.00 1.05 1.10
0.54 0.53 0.52 0.51 0.48 0.47 0.43 0.43 0.34 0.47 0.53 0.55 0.59 0.64 0.85 0.88 0.72 0.47 0.33 0.26 0.54 0.42 0.58 0.58 0.63 0.55 0.65 0.59 0.57 0.62 0.61 0.65 0.69 0.73 0.77 0.74 0.81 0.88 0.80 0.89 0.75 0.68 0.61 0.65 0.62 0.65 0.68 0.79 0.80 0.74 0.67 0.68 0.72 0.72 0.75 0.73 0.73 0.77 0.72 0.64 0.62 0.61 0.59 0.61 0.61 0.60 0.54 0.48 0.45 0.54 0.59 0.61 0.43 0.55 0.59 0.54 0.60 0.65 0.68 0.70 0.76 0.81 0.85 0.90 0.96 1.02 1.05 1.09
0.56 0.54 0.51 0.51 0.40 0.43 0.40 0.32 0.39 0.48 0.52 0.56 0.58 0.73 0.75 0.69 0.45 0.35 0.24 0.35 0.56 0.50 0.63 0.57 0.54 0.64 0.56 0.54 0.50 0.58 0.58 0.62 0.64 0.66 0.63 0.71 0.70 0.74 0.76 0.72 0.79 0.68 0.66 0.62 0.62 0.67 0.71 0.73 0.72 0.74 0.81 0.77 0.77 0.67 0.77 0.80 0.78 0.74 0.64 0.60 0.57 0.54 0.57 0.53 0.53 0.59 0.47 0.37 0.49 0.55 0.60 0.61 0.42 0.50 0.61 0.66 0.75 0.74 0.70 0.69 0.73 0.76 0.83 0.89 0.95 1.01 1.06 1.10
0.56 0.53 0.51 0.47 0.48 0.51 0.34 0.33 0.40 0.49 0.49 0.51 0.56 0.61 0.57 0.41 0.45 0.31 0.29 0.57 0.38 0.46 0.49 0.48 0.56 0.55 0.54 0.56 0.54 0.53 0.51 0.59 0.62 0.62 0.57 0.59 0.59 0.60 0.61 0.58 0.62 0.52 0.50 0.55 0.53 0.69 0.63 0.65 0.73 0.75 0.84 0.81 0.74 0.68 0.68 0.74 0.72 0.69 0.65 0.60 0.47 0.41 0.45 0.37 0.46 0.39 0.44 0.39 0.50 0.59 0.60 0.50 0.47 0.57 0.63 0.68 0.74 0.77 0.75 0.75 0.75 0.76 0.81 0.90 0.98 1.00 1.05 1.11
0.56 0.52 0.50 0.49 0.50 0.44 0.44 0.46 0.49 0.46 0.46 0.48 0.49 0.54 0.48 0.31 0.24 0.38 0.41 0.46 0.41 0.50 0.49 0.59 0.52 0.53 0.52 0.53 0.50 0.54 0.57 0.50 0.59 0.59 0.60 0.60 0.59 0.59 0.63 0.62 0.66 0.64 0.47 0.58 0.56 0.56 0.55 0.69 0.71 0.73 0.80 0.84 0.83 0.65 0.57 0.58 0.67 0.64 0.58 0.55 0.47 0.37 0.36 0.33 0.39 0.46 0.44 0.49 0.58 0.60 0.62 0.49 0.58 0.62 0.68 0.67 0.73 0.77 0.78 0.77 0.78 0.79 0.82 0.88 0.95 1.02 1.06 1.10
0.55 0.53 0.47 0.50 0.49 0.49 0.49 0.52 0.49 0.46 0.40 0.46 0.49 0.46 0.36 0.26 0.26 0.43 0.43 0.45 0.44 0.55 0.56 0.52 0.53 0.54 0.52 0.47 0.49 0.55 0.49 0.54 0.55 0.54 0.58 0.53 0.57 0.56 0.59 0.62 0.65 0.60 0.62 0.59 0.52 0.54 0.44 0.44 0.60 0.70 0.64 0.84 0.79 0.74 0.68 0.66 0.68 0.65 0.70 0.63 0.52 0.48 0.40 0.33 0.40 0.35 0.37 0.44 0.52 0.61 0.52 0.45 0.48 0.52 0.74 0.70 0.72 0.77 0.78 0.81 0.83 0.84 0.87 0.92 0.97 1.02 1.05 1.07
0.56 0.58 0.58 0.56 0.54 0.55 0.53 0.53 0.50 0.46 0.41 0.47 0.40 0.33 0.25 0.27 0.34 0.35 0.41 0.44 0.48 0.53 0.50 0.55 0.49 0.49 0.48 0.50 0.54 0.55 0.54 0.49 0.55 0.54 0.52 0.53 0.51 0.54 0.55 0.58 0.62 0.64 0.62 0.53 0.54 0.59 0.52 0.51 0.66 0.81 0.76 0.81 0.72 0.80 0.83 0.76 0.72 0.75 0.75 0.77 0.63 0.54 0.65 0.44 0.47 0.49 0.45 0.46 0.46 0.50 0.48 0.57 0.56 0.71 0.77 0.80 0.77 0.72 0.75 0.76 0.79 0.80 0.85 0.89 0.90 0.93 0.95 0.96
0.58 0.56 0.59 0.51 0.50 0.55 0.53 0.52 0.50 0.44 0.36 0.36 0.34 0.24 0.26 0.33 0.33 0.41 0.44 0.53 0.53 0.47 0.50 0.51 0.48 0.45 0.45 0.47 0.52 0.52 0.60 0.53 0.51 0.54 0.51 0.52 0.54 0.54 0.60 0.60 0.60 0.63 0.59 0.51 0.54 0.49 0.53 0.52 0.68 0.72 0.81 0.76 0.79 0.82 0.79 0.84 0.53 0.65 0.69 0.57 0.59 0.69 0.62 0.50 0.53 0.57 0.55 0.43 0.39 0.50 0.47 0.53 0.64 0.69 0.79 0.74 0.76 0.72 0.73 0.72 0.72 0.72 0.77 0.80 0.81 0.84 0.86 0.87
0.54 0.57 0.50 0.50 0.50 0.55 0.53 0.52 0.46 0.38 0.35 0.38 0.31 0.22 0.31 0.36 0.39 0.44 0.51 0.51 0.52 0.52 0.50 0.42 0.47 0.44 0.43 0.43 0.46 0.50 0.53 0.56 0.53 0.51 0.47 0.55 0.51 0.57 0.60 0.61 0.66 0.63 0.64 0.61 0.55 0.63 0.50 0.49 0.67 0.68 0.63 0.76 0.83 0.83 0.81 0.78 0.77 0.69 0.55 0.58 0.70 0.71 0.65 0.53 0.38 0.42 0.41 0.34 0.38 0.49 0.43 0.46 0.52 0.38 0.72 0.76 0.75 0.75 0.75 0.74 0.75 0.75 0.75 0.74 0.75 0.80 0.81 0.84
0.56 0.54 0.51 0.41 0.46 0.54 0.55 0.48 0.42 0.39 0.41 0.33 0.25 0.27 0.35 0.36 0.43 0.46 0.54 0.56 0.59 0.59 0.48 0.45 0.50 0.50 0.45 0.45 0.45 0.48 0.54 0.52 0.50 0.52 0.47 0.52 0.46 0.62 0.60 0.61 0.65 0.65 0.67 0.68 0.59 0.58 0.65 0.50 0.57 0.67 0.69 0.71 0.79 0.79 0.71 0.76 0.78 0.67 0.59 0.70 0.56 0.46 0.44 0.50 0.45 0.34 0.32 0.32 0.36 0.43 0.48 0.50 0.53 0.49 0.64 0.61 0.66 0.67 0.73 0.77 0.77 0.77 0.78 0.77 0.78 0.79 0.84 0.87
0.61 0.54 0.43 0.41 0.55 0.55 0.52 0.53 0.50 0.43 0.37 0.25 0.26 0.22 0.33 0.37 0.43 0.48 0.54 0.56 0.59 0.57 0.51 0.52 0.48 0.53 0.49 0.47 0.49 0.54 0.53 0.47 0.52 0.51 0.49 0.49 0.49 0.57 0.59 0.63 0.61 0.67 0.67 0.67 0.61 0.62 0.64 0.47 0.47 0.65 0.64 0.67 0.71 0.71 0.52 0.58 0.69 0.71 0.71 0.64 0.64 0.56 0.47 0.44 0.47 0.43 0.41 0.33 0.34 0.34 0.40 0.41 0.55 0.59 0.67 0.66 0.68 0.70 0.71 0.74 0.74 0.78 0.81 0.83 0.84 0.83 0.84 0.87
0.55 0.47 0.35 0.49 0.58 0.62 0.62 0.63 0.50 0.40 0.30 0.24 0.26 0.28 0.36 0.35 0.42 0.52 0.57 0.56 0.56 0.57 0.56 0.53 0.55 0.50 0.51 0.52 0.52 0.51 0.55 0.55 0.52 0.52 0.53 0.53 0.57 0.61 0.60 0.68 0.60 0.62 0.66 0.66 0.63 0.62 0.55 0.60 0.41 0.52 0.65 0.68 0.56 0.60 0.56 0.57 0.53 0.55 0.57 0.53 0.53 0.53 0.53 0.52 0.49 0.46 0.40 0.35 0.35 0.35 0.34 0.44 0.58 0.69 0.68 0.69 0.72 0.74 0.75 0.72 0.77 0.79 0.83 0.86 0.89 0.91 0.91 0.93
0.60 0.47 0.42 0.57 0.63 0.70 0.66 0.50 0.44 0.32 0.29 0.35 0.26 0.30 0.33 0.37 0.45 0.53 0.57 0.61 0.58 0.66 0.61 0.58 0.57 0.53 0.55 0.52 0.54 0.57 0.55 0.55 0.54 0.52 0.53 0.54 0.56 0.52 0.63 0.63 0.65 0.58 0.64 0.64 0.61 0.59 0.53 0.53 0.43 0.48 0.50 0.50 0.50 0.56 0.57 0.58 0.60 0.58 0.57 0.52 0.53 0.48 0.46 0.41 0.34 0.48 0.46 0.41 0.36 0.36 0.36 0.49 0.63 0.77 0.73 0.72 0.76 0.78 0.80 0.82 0.79 0.82 0.84 0.87 0.90 0.93 0.94 0.92
0.48 0.40 0.43 0.62 0.71 0.70 0.53 0.39 0.33 0.36 0.30 0.27 0.33 0.34 0.35 0.44 0.44 0.51 0.54 0.60 0.58 0.58 0.69 0.63 0.64 0.58 0.59 0.56 0.58 0.57 0.55 0.55 0.54 0.53 0.54 0.54 0.59 0.60 0.62 0.71 0.67 0.63 0.60 0.57 0.57 0.61 0.60 0.54 0.51 0.46 0.47 0.47 0.51 0.56 0.59 0.60 0.59 0.56 0.57 0.51 0.53 0.54 0.52 0.41 0.33 0.38 0.46 0.46 0.49 0.46 0.39 0.46 0.71 0.78 0.78 0.77 0.79 0.80 0.82 0.85 0.82 0.85 0.87 0.89 0.92 0.96 0.98 0.99
0.47 0.54 0.60 0.64 0.73 0.64 0.49 0.41 0.35 0.33 0.32 0.42 0.37 0.38 0.41 0.42 0.44 0.52 0.50 0.57 0.54 0.58 0.61 0.61 0.62 0.58 0.65 0.60 0.63 0.58 0.58 0.54 0.54 0.53 0.54 0.56 0.60 0.63 0.67 0.69 0.70 0.71 0.66 0.58 0.60 0.61 0.61 0.54 0.46 0.45 0.50 0.53 0.57 0.59 0.59 0.59 0.58 0.55 0.53 0.55 0.52 0.49 0.51 0.50 0.43 0.44 0.41 0.41 0.42 0.42 0.39 0.49 0.70 0.80 0.80 0.81 0.82 0.82 0.84 0.84 0.82 0.84 0.88 0.90 0.92 0.95 0.98 1.00
0.52 0.54 0.54 0.64 0.75 0.68 0.46 0.35 0.36 0.37 0.41 0.42 0.39 0.36 0.40 0.42 0.46 0.49 0.52 0.57 0.53 0.57 0.57 0.58 0.63 0.64 0.62 0.67 0.65 0.58 0.62 0.49 0.57 0.56 0.55 0.58 0.58 0.70 0.69 0.69 0.68 0.65 0.63 0.60 0.59 0.62 0.52 0.48 0.51 0.40 0.41 0.43 0.46 0.52 0.51 0.54 0.55 0.52 0.52 0.53 0.53 0.50 0.50 0.51 0.50 0.48 0.39 0.43 0.43 0.39 0.32 0.42 0.68 0.79 0.81 0.82 0.82 0.80 0.80 0.83 0.85 0.82 0.84 0.87 0.90 0.93 0.96 0.98
0.54 0.59 0.59 0.64 0.70 0.67 0.51 0.54 0.45 0.42 0.44 0.40 0.37 0.34 0.38 0.42 0.49 0.53 0.54 0.55 0.59 0.60 0.58 0.61 0.62 0.66 0.65 0.70 0.66 0.65 0.65 0.58 0.56 0.64 0.60 0.60 0.60 0.70 0.71 0.69 0.68 0.66 0.75 0.71 0.69 0.64 0.55 0.49 0.47 0.37 0.33 0.30 0.30 0.33 0.39 0.44 0.49 0.50 0.54 0.54 0.52 0.53 0.48 0.49 0.41 0.43 0.36 0.39 0.44 0.41 0.42 0.55 0.69 0.75 0.75 0.78 0.78 0.78 0.81 0.82 0.85 0.85 0.84 0.85 0.88 0.91 0.93 0.94
0.41 0.36 0.54 0.56 0.63 0.63 0.57 0.62 0.56 0.50 0.47 0.46 0.38 0.38 0.35 0.39 0.48 0.54 0.53 0.54 0.59 0.62 0.62 0.64 0.66 0.67 0.65 0.65 0.62 0.62 0.62 0.67 0.58 0.61 0.60 0.60 0.62 0.67 0.70 0.69 0.67 0.66 0.71 0.68 0.69 0.64 0.54 0.53 0.51 0.47 0.44 0.42 0.44 0.47 0.54 0.54 0.51 0.50 0.49 0.50 0.50 0.51 0.51 0.51 0.48 0.40 0.36 0.41 0.43 0.47 0.49 0.52 0.58 0.66 0.69 0.73 0.76 0.74 0.76 0.79 0.79 0.80 0.83 0.87 0.89 0.89 0.91 0.92
0.49 0.38 0.41 0.43 0.55 0.56 0.56 0.60 0.54 0.51 0.45 0.52 0.37 0.43 0.38 0.39 0.48 0.49 0.55 0.49 0.58 0.56 0.62 0.61 0.62 0.57 0.61 0.59 0.58 0.57 0.62 0.61 0.65 0.60 0.62 0.61 0.65 0.66 0.71 0.68 0.68 0.68 0.70 0.68 0.66 0.62 0.55 0.48 0.50 0.52 0.48 0.50 0.53 0.51 0.54 0.55 0.48 0.50 0.49 0.48 0.51 0.51 0.50 0.51 0.48 0.43 0.47 0.43 0.39 0.55 0.55 0.49 0.55 0.64 0.69 0.72 0.75 0.77 0.79 0.79 0.80 0.82 0.83 0.85 0.87 0.89 0.90 0.91
0.46 0.52 0.52 0.61 0.46 0.49 0.47 0.52 0.54 0.51 0.53 0.48 0.45 0.51 0.42 0.41 0.42 0.42 0.58 0.56 0.55 0.62 0.50 0.60 0.60 0.61 0.61 0.57 0.58 0.51 0.58 0.59 0.60 0.58 0.65 0.65 0.63 0.66 0.62 0.66 0.64 0.67 0.68 0.65 0.67 0.61 0.53 0.44 0.51 0.53 0.48 0.53 0.54 0.52 0.55 0.52 0.51 0.51 0.52 0.52 0.50 0.51 0.51 0.48 0.48 0.50 0.50 0.49 0.42 0.55 0.61 0.55 0.59 0.66 0.72 0.75 0.77 0.77 0.79 0.81 0.84 0.86 0.86 0.87 0.87 0.86 0.85 0.86
0.45 0.58 0.57 0.65 0.48 0.56 0.56 0.62 0.60 0.55 0.53 0.53 0.51 0.49 0.44 0.45 0.44 0.54 0.49 0.50 0.53 0.55 0.54 0.44 0.53 0.59 0.60 0.64 0.59 0.56 0.59 0.51 0.55 0.63 0.63 0.64 0.62 0.61 0.58 0.62 0.66 0.67 0.66 0.67 0.64 0.64 0.58 0.52 0.53 0.53 0.48 0.50 0.52 0.52 0.53 0.50 0.49 0.50 0.50 0.53 0.54 0.53 0.53 0.53 0.52 0.53 0.53 0.50 0.55 0.57 0.59 0.59 0.67 0.70 0.75 0.79 0.83 0.83 0.84 0.87 0.87 0.85 0.84 0.85 0.85 0.85 0.84 0.85
0.36 0.44 0.48 0.57 0.54 0.54 0.58 0.59 0.57 0.54 0.51 0.59 0.44 0.52 0.49 0.47 0.47 0.55 0.57 0.49 0.44 0.51 0.58 0.50 0.52 0.57 0.62 0.62 0.62 0.55 0.58 0.61 0.63 0.60 0.69 0.64 0.64 0.64 0.62 0.63 0.64 0.67 0.66 0.62 0.62 0.68 0.56 0.52 0.55 0.54 0.48 0.46 0.51 0.54 0.54 0.51 0.49 0.45 0.50 0.51 0.53 0.55 0.54 0.55 0.54 0.56 0.55 0.53 0.57 0.58 0.57 0.57 0.73 0.80 0.79 0.85 0.86 0.87 0.85 0.83 0.83 0.85 0.86 0.86 0.84 0.84 0.85 0.85
0.49 0.53 0.51 0.48 0.47 0.55 0.53 0.53 0.51 0.50 0.47 0.54 0.45 0.53 0.51 0.54 0.50 0.52 0.53 0.59 0.52 0.49 0.53 0.50 0.54 0.55 0.60 0.63 0.61 0.61 0.64 0.64 0.66 0.68 0.70 0.68 0.60 0.71 0.62 0.67 0.67 0.62 0.64 0.63 0.61 0.63 0.56 0.53 0.56 0.53 0.42 0.43 0.50 0.50 0.51 0.52 0.50 0.47 0.45 0.47 0.49 0.51 0.47 0.52 0.49 0.56 0.54 0.49 0.53 0.55 0.51 0.54 0.71 0.81 0.82 0.82 0.83 0.81 0.80 0.81 0.82 0.84 0.86 0.86 0.84 0.84 0.86 0.87
0.57 0.58 0.58 0.46 0.39 0.48 0.45 0.53 0.50 0.40 0.36 0.51 0.51 0.54 0.47 0.53 0.55 0.57 0.49 0.59 0.62 0.61 0.59 0.55 0.59 0.54 0.56 0.56 0.60 0.61 0.66 0.66 0.68 0.72 0.76 0.77 0.75 0.73 0.73 0.71 0.70 0.65 0.64 0.62 0.65 0.58 0.60 0.53 0.49 0.48 0.40 0.43 0.50 0.48 0.47 0.49 0.45 0.39 0.40 0.47 0.51 0.53 0.54 0.56 0.57 0.61 0.59 0.61 0.54 0.50 0.52 0.68 0.73 0.79 0.76 0.78 0.80 0.81 0.82 0.83 0.83 0.85 0.87 0.86 0.85 0.85 0.87 0.88
Wind_Speed
17 17 17 18 18 19 20 21 22 23 23 23 23 24 24 24 24 25 25 25 26 26 26 26 25 25 24 25 25 25 24 22 20 19 18 18 17 16 16 16 16 15 15 15 16 16 16 18 19 20 22 23 25 25 26 27 27 28 26 28 29 29 29 28 29 28 26 25 25 28 29 28 27 26 24 23 23 22 21 20 18 16 15 15 15 17 17 16
17 17 17 17 18 19 20 21 22 23 23 22 23 23 24 24 24 24 24 25 25 25 25 25 24 23 23 24 25 25 23 20 20 19 18 18 17 16 16 16 15 13 12 13 14 14 15 17 18 20 21 22 23 24 25 26 27 27 26 27 28 28 27 25 26 26 27 25 25 28 28 28 28 27 26 25 24 23 22 20 19 17 16 16 16 17 17 16
17 17 17 17 17 18 20 21 22 23 22 22 22 23 23 23 23 23 23 24 24 25 24 24 23 22 22 24 25 25 22 19 20 19 18 19 18 16 15 14 13 11 10 11 12 13 14 15 17 19 20 21 22 23 24 25 27 27 26 26 27 27 26 24 24 24 25 24 25 28 28 28 28 27 26 26 26 25 22 20 20 19 18 17 17 17 17 17
17 17 16 16 17 18 20 20 21 22 22 21 22 23 23 23 22 22 22 23 24 24 24 23 22 21 22 24 25 25 21 18 20 20 20 21 19 16 13 11 10 9 9 9 10 11 12 14 17 19 19 19 21 23 24 25 25 26 26 25 25 26 25 24 25 24 23 24 25 26 27 27 27 27 26 27 27 24 22 21 20 19 18 17 18 18 17 17
17 16 16 16 17 18 19 20 21 22 21 21 22 22 22 22 22 22 22 22 23 23 23 23 21 20 21 23 24 24 21 19 22 22 22 22 19 14 10 8 7 7 7 7 8 10 11 13 16 19 18 18 20 22 23 24 24 24 25 25 24 24 24 22 23 24 24 25 26 26 26 26 27 27 27 28 27 24 22 22 21 20 19 18 18 18 17 17
17 16 16 16 17 18 19 20 21 21 21 20 21 22 21 21 21 21 21 22 22 22 22 22 21 20 21 23 23 22 21 20 22 23 23 21 18 13 8 5 4 4 4 4 7 9 11 13 16 17 17 17 19 21 22 24 25 23 24 26 22 22 24 21 20 22 24 26 28 27 25 26 27 26 27 27 25 22 21 20 20 20 19 18 18 18 17 17
16 16 15 16 17 18 19 20 20 21 21 20 21 21 21 21 21 20 21 21 21 21 21 21 20 20 21 21 21 20 21 21 22 23 23 21 18 13 9 6 3 3 1 3 5 8 10 13 16 16 16 17 18 20 21 23 25 22 22 27 23 21 23 21 20 22 23 26 27 26 25 27 27 26 25 24 23 23 21 18 19 20 19 18 18 18 17 16
16 16 15 15 16 17 19 19 20 20 20 20 20 20 20 20 20 20 20 20 21 20 20 19 19 20 20 20 20 19 20 21 21 22 22 21 19 14 10 7 5 3 2 2 4 7 9 13 15 15 16 16 17 19 21 22 24 23 20 25 25 21 23 22 21 22 22 24 24 24 24 24 24 24 23 22 22 23 21 19 19 19 19 19 18 18 18 16
16 16 15 15 16 17 18 19 20 20 20 20 20 20 19 19 19 20 20 19 20 19 19 18 18 18 18 19 18 19 20 20 20 21 21 21 19 15 11 9 6 5 4 3 3 5 8 12 13 14 14 15 16 18 21 21 22 23 19 21 24 22 23 23 22 22 22 23 24 24 23 22 23 23 21 21 22 22 21 19 19 19 20 19 18 18 17 16
16 15 15 15 16 17 18 19 19 20 20 20 20 19 19 19 19 19 19 19 19 18 18 17 18 17 17 18 17 18 19 18 19 20 20 20 20 16 13 11 8 6 6 5 4 6 8 11 11 13 13 13 16 17 20 19 18 23 20 19 22 22 23 23 22 22 21 22 24 25 24 24 25 24 21 21 23 23 20 19 18 20 20 19 18 18 17 16
16 15 15 15 16 16 17 18 19 19 20 20 20 19 18 18 19 19 19 18 18 18 17 16 17 17 17 17 16 18 18 18 19 19 19 20 20 17 14 12 10 8 8 6 5 6 8 10 10 12 12 13 15 16 18 16 16 21 21 20 21 22 22 21 22 23 22 21 22 24 23 22 24 24 21 20 21 21 20 19 18 18 18 17 18 18 17 16
16 15 15 15 15 16 17 18 19 19 19 20 20 19 17 18 18 18 18 18 17 16 16 16 16 17 17 15 16 17 17 17 19 19 18 18 20 18 15 13 11 10 9 7 7 7 8 10 10 10 12 13 15 17 16 14 14 18 20 22 23 23 22 19 20 22 22 21 19 22 23 21 21 22 21 19 20 20 19 19 17 17 16 16 17 18 17 16
16 15 15 15 15 16 17 17 18 19 19 20 20 18 17 17 17 17 17 17 16 16 16 15 15 16 16 15 15 16 16 17 18 18 17 17 18 18 16 15 13 11 10 9 8 8 8 8 8 9 12 13 15 16 15 15 17 17 18 21 23 24 22 19 19 20 21 20 19 20 22 22 22 21 20 19 19 19 18 18 17 16 15 15 17 17 16 15
16 16 15 15 15 16 16 17 18 18 19 19 20 18 17 17 16 16 16 15 16 15 15 15 15 15 15 14 15 16 16 16 17 17 17 16 17 17 16 16 15 13 11 10 9 9 8 7 8 10 12 12 15 16 15 18 19 17 16 18 22 22 20 20 20 20 21 20 19 19 20 22 22 21 21 20 19 19 18 17 15 15 15 15 16 16 15 15
17 16 15 15 15 15 16 16 17 18 19 19 20 18 17 16 16 15 15 14 15 15 15 14 14 14 13 13 15 16 15 15 15 15 15 15 15 15 14 14 15 15 13 11 9 9 8 8 9 11 13 14 16 17 16 18 18 17 17 18 22 22 20 21 20 20 20 20 19 18 19 21 22 21 22 21 20 19 17 15 14 14 15 15 15 15 15 14
17 16 15 15 15 15 15 16 17 17 18 19 19 19 17 15 14 14 13 12 13 14 14 14 13 12 13 13 14 14 14 14 15 14 13 13 13 14 13 13 14 14 13 12 10 9 9 9 10 12 14 15 15 16 16 17 16 16 18 18 21 22 20 20 19 18 19 19 19 19 19 20 20 21 21 20 19 18 16 13 13 14 15 15 15 14 14 14
17 16 16 15 15 15 15 16 16 17 18 18 19 18 16 14 13 13 12 11 12 13 13 14 13 11 11 13 13 13 14 14 14 14 12 11 13 14 13 12 12 12 12 11 11 10 10 10 12 13 13 14 14 15 16 16 16 16 17 17 19 20 19 19 19 18 19 18 17 19 19 18 19 20 20 19 19 18 15 12 13 13 14 15 14 14 14 13
17 17 16 15 15 14 14 15 16 16 17 18 18 17 15 13 13 11 11 11 11 11 12 13 14 11 10 12 13 14 15 14 13 13 11 10 11 13 13 12 12 12 10 9 11 11 11 11 12 12 12 13 13 15 15 14 15 17 18 18 19 19 16 18 19 17 18 17 16 18 19 17 18 18 18 18 19 18 15 13 13 14 14 14 13 13 13 13
18 17 16 15 15 14 14 14 15 15 16 17 16 16 14 12 11 10 10 11 10 11 12 13 14 13 12 13 13 14 14 13 12 12 11 10 10 13 14 13 13 12 9 9 10 10 10 10 11 11 11 12 11 13 13 12 16 19 19 19 21 18 14 17 19 16 18 17 15 17 17 16 16 16 16 18 18 17 16 14 14 14 13 13 13 13 13 12
18 17 16 16 15 14 13 14 14 14 15 15 15 14 13 12 10 10 11 10 9 10 12 12 13 13 13 14 14 14 12 11 12 11 10 9 9 11 12 12 14 14 10 10 11 10 9 10 10 10 11 11 9 11 13 13 17 20 19 18 21 18 13 17 18 16 16 16 14 14 14 14 16 16 15 17 18 17 16 15 14 13 13 13 13 13 13 13
18 17 17 16 15 14 13 13 13 13 14 13 13 13 13 12 11 11 11 9 8 9 10 12 13 12 13 13 14 14 11 10 11 11 9 9 8 9 10 10 12 14 11 9 10 10 9 10 9 9 9 8 9 12 14 15 17 18 18 18 18 17 15 16 17 15 14 14 14 13 12 14 17 16 15 17 18 17 16 15 14 13 13 12 13 13 13 12
18 17 17 16 15 14 12 12 12 12 12 11 12 12 12 11 10 10 10 9 8 9 10 11 12 13 12 12 12 12 10 10 11 11 10 8 7 8 8 8 11 13 11 9 9 9 9 9 9 9 8 9 12 15 15 15 16 17 17 17 16 17 16 15 15 14 12 12 14 13 10 13 17 16 15 17 17 16 16 15 14 14 13 12 12 13 13 12
18 18 17 15 15 13 12 12 12 11 10 10 11 11 11 11 9 8 8 8 8 8 9 10 11 12 13 13 12 10 10 10 10 11 11 8 7 8 7 8 10 12 10 9 10 9 9 9 9 10 10 12 14 15 16 16 15 14 14 15 16 17 16 14 14 14 12 11 12 12 9 9 14 15 15 16 16 15 15 15 15 14 13 13 12 12 12 13
18 17 17 16 14 13 11 11 10 9 9 9 10 10 11 11 9 7 7 6 7 7 8 10 11 12 13 13 12 10 10 10 9 10 11 9 7 9 8 8 10 10 9 10 11 11 11 11 11 12 13 14 14 14 15 15 14 13 13 14 16 16 14 13 14 14 12 10 10 11 9 8 12 15 15 16 16 16 15 15 15 14 13 13 12 12 12 13
17 17 17 16 14 12 11 10 8 8 9 8 8 9 11 11 8 6 6 5 5 6 8 9 10 10 12 12 12 11 10 10 10 9 9 9 7 7 8 8 8 9 10 11 11 12 13 12 12 14 14 12 12 13 14 13 13 13 12 14 16 16 15 13 12 13 11 9 11 12 9 7 11 14 15 14 15 16 15 15 16 15 14 13 13 13 13 13
17 17 16 15 14 12 10 8 7 8 8 7 7 9 10 11 8 6 5 4 4 6 8 8 9 10 11 11 11 11 10 11 11 9 8 7 6 6 6 6 6 8 9 10 10 10 12 12 11 12 12 11 10 11 11 11 11 11 13 14 14 15 13 11 12 13 10 9 12 13 8 6 8 10 12 13 13 14 15 15 15 15 15 14 13 13 13 13
17 17 16 15 13 11 9 7 7 8 7 6 7 9 10 10 7 5 4 3 4 6 7 8 8 9 10 10 10 10 11 12 11 11 10 7 6 5 5 5 5 6 7 7 8 9 10 10 10 11 10 9 8 8 10 10 10 11 12 11 12 12 11 11 13 13 11 10 12 13 10 7 6 6 7 10 11 12 13 14 15 15 15 14 14 13 13 13
17 17 15 14 12 10 8 7 8 7 6 6 7 8 10 8 6 5 4 3 5 5 6 7 7 8 9 9 9 9 12 11 11 12 11 9 7 5 5 6 6 6 6 5 7 8 8 8 10 10 8 7 7 7 9 11 10 11 10 9 10 11 11 12 13 11 10 9 10 12 11 7 5 5 6 7 8 9 11 12 13 14 15 15 14 14 13 12
17 16 15 13 12 10 8 7 7 7 6 6 7 8 8 6 5 4 3 3 4 4 5 6 6 6 7 7 7 9 10 10 10 12 11 11 10 7 7 7 6 6 6 5 6 8 7 7 8 7 6 7 8 8 8 9 10 10 9 9 10 10 10 11 10 9 9 7 8 10 8 6 6 5 5 5 6 6 8 9 10 12 13 14 14 13 13 12
17 15 14 12 10 9 7 7 7 6 6 6 7 7 6 5 5 4 3 3 3 4 4 5 5 6 7 6 6 7 8 9 9 10 10 10 10 10 9 8 6 6 7 7 7 8 7 7 6 5 6 8 8 8 8 8 9 10 10 10 10 9 9 8 7 7 7 6 7 7 5 4 5 4 3 3 4 4 6 7 8 9 11 13 13 13 12 12
16 15 13 11 9 8 7 6 6 6 6 6 7 6 5 4 5 4 4 3 3 4 4 4 6 6 7 6 5 6 6 7 8 8 8 8 8 9 8 7 7 7 8 8 8 8 7 6 5 5 6 7 7 7 7 7 8 8 8 9 9 9 8 7 6 6 6 7 8 7 4 3 4 4 3 2 2 2 4 6 7 7 8 10 12 12 12 11
15 14 12 11 9 8 7 6 6 7 6 6 6 5 5 4 4 4 4 2 3 4 4 4 5 6 6 5 5 6 6 6 7 7 8 7 7 8 8 8 8 8 9 8 8 8 8 7 7 7 6 5 5 5 6 6 6 6 7 8 9 9 8 7 7 6 7 8 8 7 5 5 6 5 4 4 3 2 3 4 5 5 6 8 10 11 11 10
15 13 12 10 9 8 8 7 7 7 7 6 6 5 5 5 4 4 4 3 2 3 3 4 5 5 5 4 4 5 5 5 6 6 7 7 7 7 8 8 7 7 8 8 8 9 8 8 7 6 5 4 3 4 6 6 6 6 7 8 8 9 9 8 8 8 9 9 8 7 5 6 7 6 5 6 5 4 4 4 3 3 4 6 8 9 9 9
14 12 10 9 8 8 8 7 7 7 6 5 5 5 5 4 3 3 4 4 3 3 3 4 5 4 3 3 4 5 4 5 6 5 5 6 6 7 7 7 6 6 7 7 7 7 7 8 7 6 7 8 8 9 10 9 8 8 7 7 7 8 8 9 9 10 11 11 10 8 6 6 7 5 5 6 7 7 6 5 4 4 4 5 6 7 8 8
12 10 9 8 8 8 8 7 7 6 5 5 5 6 5 4 3 3 4 4 4 4 4 4 4 3 2 2 3 4 3 4 5 5 5 6 7 7 7 6 5 5 6 7 7 7 9 10 9 9 10 11 11 11 11 9 9 9 8 8 8 8 9 11 11 11 12 11 9 8 7 8 9 8 7 7 8 8 8 8 7 6 5 5 6 6 6 6
10 9 9 8 8 8 7 7 6 5 5 5 6 5 4 3 4 3 4 5 4 4 5 4 3 3 2 0 1 2 2 2 4 5 5 6 7 8 7 6 5 4 4 6 6 6 8 10 10 10 10 9 10 10 10 9 10 9 9 9 11 11 11 11 13 12 11 10 9 8 9 10 9 8 8 7 8 8 8 9 8 7 6 6 5 5 5 5
10 9 8 8 8 8 7 6 5 5 5 6 6 5 4 3 4 4 4 5 4 4 4 3 2 2 2 1 1 2 2 2 3 4 4 4 5 7 7 6 6 4 4 5 6 7 9 10 10 10 9 9 9 9 8 8 8 8 9 10 10 10 9 9 11 10 9 9 8 8 9 9 7 7 7 7 8 8 8 8 8 7 6 6 5 4 4 4
9 9 8 8 7 6 6 5 5 5 6 6 6 5 5 4 4 4 5 5 4 4 4 3 2 2 2 2 1 1 2 2 2 3 4 4 4 5 6 5 5 5 5 5 6 8 8 9 9 8 8 9 9 8 7 7 7 7 8 8 8 8 8 8 9 9 9 10 9 9 10 8 7 6 6 7 7 7 7 7 7 6 6 5 5 4 3 3
9 9 8 7 7 6 5 5 5 6 6 6 6 5 5 5 4 5 5 5 4 4 3 3 3 3 3 3 2 2 1 2 2 2 3 3 3 4 5 5 4 5 5 5 5 6 5 6 8 8 7 8 8 7 7 8 8 6 6 7 7 7 7 7 7 7 8 9 9 9 9 7 7 6 6 7 7 6 6 6 6 6 5 5 4 4 3 2
9 9 8 7 6 6 6 6 6 6 6 7 6 5 5 5 5 5 5 5 4 4 3 3 3 4 4 3 3 2 2 2 2 1 2 3 3 4 6 5 4 5 6 5 4 5 4 5 8 8 7 7 6 5 5 6 7 6 6 6 7 7 6 7 7 6 6 8 8 8 8 7 6 5 5 6 6 6 5 5 6 6 6 5 4 4 3 2
9 9 7 7 7 6 7 7 7 6 6 6 7 6 6 6 6 6 5 5 4 4 4 4 4 4 4 4 4 3 3 3 2 1 1 3 3 3 4 5 3 4 5 4 4 4 4 5 6 7 6 5 5 5 4 4 4 4 5 5 6 6 5 6 7 6 5 7 8 8 8 7 5 4 5 5 5 5 5 5 5 6 6 6 5 5 4 3
10 9 7 7 7 7 8 8 7 7 7 6 6 7 7 6 7 6 5 5 5 4 4 4 4 4 4 4 4 4 4 4 3 2 1 1 1 2 3 4 3 2 2 3 4 4 4 4 5 6 5 5 5 5 4 4 4 4 5 5 4 4 3 4 6 7 6 7 8 8 7 6 4 4 5 4 5 5 5 5 5 5 6 5 5 5 4 4
9 8 7 7 7 8 8 7 6 7 7 6 7 8 7 7 7 7 6 6 5 5 5 5 4 5 5 5 5 5 5 5 4 4 3 2 1 1 1 3 2 1 1 2 3 4 4 3 4 6 6 6 6 6 6 5 4 5 5 4 4 4 3 4 5 6 7 7 7 7 6 5 4 4 4 4 4 4 4 5 4 4 4 5 5 4 3 3
8 7 7 8 8 8 8 7 7 7 6 7 7 7 7 7 7 7 6 6 5 5 5 5 5 5 5 5 6 5 5 5 5 4 4 4 2 1 1 2 2 1 1 2 2 3 3 2 3 4 5 6 6 6 6 5 4 4 4 4 3 3 4 4 4 5 6 5 5 5 6 5 5 5 5 4 4 4 4 4 4 4 4 4 4 4 3 3
9 8 8 8 8 8 8 7 7 7 7 7 7 7 7 7 7 7 7 6 5 6 6 5 5 5 5 6 6 6 6 6 6 5 5 5 4 3 2 1 1 1 1 1 1 2 2 2 2 2 3 4 4 4 4 4 4 4 3 3 3 3 3 3 3 4 5 5 3 4 6 6 5 5 4 4 4 3 3 3 3 4 4 4 4 4 4 3
9 9 8 8 8 8 8 7 8 8 7 7 7 7 7 7 6 7 8 7 6 6 6 6 6 6 6 6 6 6 6 7 7 7 7 6 6 5 4 3 2 0 1 2 2 2 3 2 1 1 1 2 3 3 3 2 3 3 2 2 2 1 1 1 2 3 5 6 4 4 7 8 5 4 4 3 3 2 2 2 3 3 4 4 4 4 4 4
9 9 9 8 8 8 8 8 8 8 7 7 7 6 7 8 7 7 8 7 7 7 7 6 6 7 6 6 7 7 7 8 8 8 8 7 7 7 6 5 4 2 2 4 3 3 3 3 2 1 2 3 3 4 3 3 3 3 2 2 1 1 1 1 1 2 3 4 4 5 7 8 5 4 4 3 2 2 1 2 2 3 3 3 3 4 4 4
9 9 8 9 8 7 7 7 7 8 7 8 7 7 7 8 7 6 7 8 7 7 7 7 7 7 7 7 7 7 7 8 8 8 8 8 8 8 8 8 6 4 4 4 3 4 4 3 2 2 2 3 3 4 3 3 4 3 2 2 2 1 2 2 2 2 1 2 5 6 7 6 5 5 4 3 2 2 1 1 2 2 3 3 3 3 4 4
8 8 8 8 8 7 7 7 8 8 7 7 7 7 7 7 7 6 7 8 8 7 7 8 7 7 7 7 7 7 7 7 8 8 8 8 8 8 8 8 7 6 5 5 4 4 4 4 4 4 3 3 3 4 4 4 4 3 3 2 2 3 3 3 3 3 3 4 6 7 6 5 4 4 4 3 3 2 1 0 1 2 3 3 3 3 4 4
7 7 7 8 8 7 7 8 8 8 7 7 7 7 7 7 7 7 8 8 9 8 8 8 8 8 8 8 7 7 6 7 8 8 8 9 9 8 8 8 7 6 6 6 6 6 5 5 5 5 4 3 4 4 4 4 3 3 2 2 2 2 2 2 2 2 3 5 6 6 6 4 4 4 4 3 3 2 1 0 1 2 3 3 3 3 3 4
6 6 7 8 8 7 7 8 8 8 8 8 8 7 7 7 7 8 8 8 9 9 8 8 8 8 9 9 8 8 7 8 9 9 10 10 10 9 9 9 8 8 7 7 7 7 7 6 7 7 6 5 5 5 5 5 4 3 2 1 1 2 2 2 2 2 2 4 5 5 4 4 5 5 4 4 3 2 1 1 2 2 3 3 3 3 4 5
6 6 7 8 8 7 8 8 8 9 9 8 8 8 8 8 7 8 8 8 9 9 9 9 10 9 9 10 9 9 9 10 10 10 11 11 11 11 11 10 10 10 8 8 7 8 8 8 8 8 7 6 6 6 6 6 6 4 2 2 2 2 3 3 2 2 3 4 4 4 4 5 6 6 5 4 3 2 2 3 3 3 3 4 4 4 5 6
Wind_Direction
333 332 332 333 334 334 335 337 339 340 340 339 340 340 340 340 340 340 341 341 341 341 340 340 341 342 342 341 339 337 334 331 328 322 314 314 314 307 302 301 298 288 276 268 258 249 239 229 224 217 215 214 215 215 210 210 210 210 214 214 213 212 212 212 213 213 212 209 205 203 202 201 199 199 200 199 195 192 194 198 200 205 206 202 196 188 187 189
333 332 332 334 335 335 336 338 339 340 340 340 341 342 342 342 342 343 344 344 344 344 344 345 345 346 345 344 343 342 340 337 333 328 322 321 317 309 301 299 297 288 276 266 254 241 232 223 217 212 212 211 211 210 208 208 207 208 211 212 212 210 209 211 213 211 209 210 204 200 201 200 197 196 198 197 193 192 194 196 197 199 199 194 189 186 186 187
333 332 333 334 335 336 337 339 340 341 341 341 343 343 344 344 344 345 346 346 347 348 349 349 348 349 349 348 346 347 345 340 339 338 335 330 320 311 301 297 293 284 274 265 249 234 228 220 211 208 209 209 208 206 206 205 205 207 208 211 210 208 207 208 210 206 206 208 200 198 200 198 195 195 198 197 193 193 196 198 197 196 196 191 188 188 186 186
333 333 333 335 336 336 338 339 340 342 342 342 344 344 345 346 346 347 347 348 349 351 352 351 351 352 352 351 351 352 350 347 350 348 343 338 328 316 303 296 291 280 275 263 239 225 225 218 207 205 206 207 205 204 204 203 203 205 206 209 206 205 207 207 208 205 204 204 198 197 197 194 193 194 197 196 195 196 197 199 198 196 196 191 187 188 188 188
333 334 334 335 337 337 338 340 340 342 342 343 345 346 347 347 348 348 349 349 350 353 354 354 353 353 354 353 356 357 354 357 359 354 349 346 342 332 315 304 294 283 278 254 225 214 215 210 202 202 204 204 201 202 203 201 200 202 205 207 203 203 205 203 205 204 205 203 198 198 195 191 192 195 197 197 199 200 197 199 200 198 196 194 190 188 190 190
334 334 335 336 337 337 339 340 340 342 343 343 345 347 348 348 349 349 350 350 352 354 355 356 355 354 354 356 0 0 1 4 1 358 359 357 357 355 346 332 311 297 282 233 209 206 206 201 196 198 200 201 199 199 200 198 199 201 203 204 202 203 203 201 200 200 203 202 197 198 193 189 191 194 196 197 199 197 195 199 199 196 194 195 193 189 190 191
334 334 335 337 337 338 339 340 341 343 344 343 344 347 348 349 349 350 351 351 353 355 356 357 356 356 356 358 1 2 7 10 5 5 8 8 10 10 9 8 352 339 280 204 195 197 199 194 192 193 196 198 196 196 196 194 197 201 202 201 203 203 200 200 196 194 197 197 196 196 190 188 192 192 193 194 195 194 196 200 194 191 191 191 191 190 190 192
334 334 335 336 337 338 339 340 341 343 344 344 344 346 348 349 350 351 352 352 354 356 358 359 359 359 360 1 2 5 11 14 12 12 15 17 18 21 24 27 27 35 92 160 173 186 190 187 188 189 192 194 192 192 191 191 194 199 199 198 200 201 196 194 191 190 191 191 190 189 185 187 191 190 189 191 194 194 196 197 191 188 189 189 192 192 191 192
334 334 335 336 337 338 339 340 341 343 344 344 345 346 348 350 351 352 352 352 354 356 358 360 1 2 1 3 3 8 14 16 15 16 19 21 23 28 32 36 47 58 85 106 136 168 175 176 180 183 188 188 185 187 188 189 191 194 195 191 193 194 191 189 187 187 188 188 187 185 184 185 190 190 187 189 191 190 191 192 190 189 190 191 194 195 193 194
335 335 335 336 337 338 339 340 342 344 344 344 345 346 347 349 351 352 352 353 355 357 359 1 4 3 2 3 4 10 15 16 17 19 23 25 26 31 36 44 58 65 79 97 123 147 160 166 169 175 181 179 181 185 185 187 188 192 192 187 189 186 185 187 185 182 182 185 186 186 184 185 191 194 190 189 188 186 187 189 189 190 192 195 197 196 195 197
335 335 336 336 336 338 339 340 341 343 343 344 345 345 346 348 350 351 352 354 355 357 359 2 5 4 3 4 5 10 14 14 16 19 24 27 28 34 42 50 59 60 68 87 114 134 150 156 159 169 175 174 179 181 180 183 186 188 184 182 187 180 178 183 182 183 182 181 183 182 181 184 190 193 194 192 188 186 185 186 189 191 195 200 202 197 195 199
336 336 336 335 336 338 338 339 341 342 343 343 344 344 344 346 348 349 351 354 356 358 360 2 5 6 4 3 6 9 11 13 16 17 21 24 29 38 45 51 54 52 56 75 102 125 140 150 159 166 168 170 175 176 175 177 177 180 177 178 182 176 176 181 180 183 183 182 186 184 183 187 190 192 196 195 190 187 184 187 193 196 197 200 201 196 195 200
338 336 336 335 336 337 338 339 340 342 343 343 344 343 341 344 347 347 350 354 357 359 1 1 3 6 4 5 10 9 9 13 16 18 18 21 30 39 45 48 51 51 54 70 92 113 130 144 157 161 164 168 169 170 170 165 165 174 176 175 178 175 177 180 178 177 178 186 196 193 188 189 191 192 197 196 190 187 187 191 197 198 197 199 199 194 193 199
338 336 336 335 335 337 337 338 339 341 343 344 345 343 341 342 344 346 349 353 357 359 1 1 2 4 5 10 13 9 9 12 15 18 20 24 31 39 45 49 51 52 55 66 83 100 118 132 144 153 158 160 162 165 164 159 162 171 172 173 177 175 175 179 179 177 179 188 197 196 190 188 189 192 195 194 191 189 188 191 195 195 197 200 198 193 192 199
338 336 335 335 335 336 336 338 339 340 342 344 345 345 341 341 343 346 349 354 358 360 2 2 2 2 2 11 14 11 12 13 12 16 20 25 31 34 41 48 50 51 55 65 81 95 110 125 138 146 148 149 155 160 159 161 164 168 167 171 177 175 172 175 178 179 181 186 192 194 187 183 186 188 189 191 190 187 183 186 192 194 200 202 197 192 194 200
338 336 335 334 334 335 336 337 338 340 342 344 346 346 343 342 344 345 349 354 357 1 4 4 5 2 2 10 14 13 14 12 12 15 18 22 26 30 38 45 46 49 56 65 77 93 103 115 128 134 140 145 151 155 157 163 165 167 170 169 171 170 169 171 174 178 179 182 188 190 184 181 184 185 185 187 187 184 180 185 191 195 204 203 197 194 197 200
337 336 334 334 333 334 334 335 338 339 341 344 347 347 346 347 348 349 353 356 357 1 6 8 7 3 5 11 11 14 15 12 15 20 21 21 25 31 38 42 42 44 54 67 75 89 99 110 124 128 136 143 148 153 157 164 168 168 169 163 159 159 164 170 172 175 177 179 186 186 182 181 182 184 185 187 187 186 186 188 188 195 206 203 196 197 200 202
337 335 334 333 332 333 333 334 337 338 341 344 347 349 350 352 354 356 0 1 358 3 10 14 13 10 12 12 12 15 15 15 19 24 27 31 32 33 40 45 45 42 50 71 76 87 98 109 122 124 133 141 146 154 159 166 170 168 165 158 154 153 160 171 170 172 176 176 183 181 177 178 180 184 187 189 190 190 191 191 191 199 206 202 198 201 204 205
336 335 334 333 332 331 331 332 335 337 340 344 348 352 353 355 358 1 4 3 0 5 11 15 16 15 14 13 14 15 18 23 26 29 34 42 42 39 45 51 49 47 60 80 81 89 99 109 122 124 133 139 145 158 166 168 165 166 164 158 159 155 155 166 166 169 173 173 178 179 177 181 183 186 189 189 192 195 197 197 199 204 206 203 203 207 208 208
335 334 333 332 331 330 329 330 333 337 339 344 350 352 354 356 1 5 4 0 359 2 5 8 10 10 9 11 15 16 21 29 30 36 41 44 49 46 49 53 49 49 64 83 84 88 96 107 117 122 130 135 146 165 170 166 160 163 162 156 160 159 152 160 163 167 174 175 175 174 179 186 187 191 193 189 191 197 201 203 204 206 206 206 208 210 210 211
334 333 332 331 330 329 326 327 331 335 338 344 350 353 356 358 1 4 2 0 3 3 2 5 7 6 7 10 13 17 23 30 33 40 40 45 57 51 49 53 49 47 53 77 87 87 93 99 105 114 125 132 148 159 161 159 156 157 157 154 159 162 156 158 162 166 175 179 173 171 181 191 193 194 194 192 194 197 200 202 203 204 206 206 209 211 211 213
333 332 332 331 329 327 324 324 329 333 337 342 348 354 359 359 0 1 358 359 5 4 3 6 7 9 12 14 16 21 26 30 37 41 40 50 58 50 56 55 49 52 57 76 89 89 92 94 97 107 116 128 137 142 142 144 150 153 154 156 159 160 156 157 162 166 172 175 171 172 174 186 196 198 196 196 198 198 197 200 201 203 206 207 210 212 212 214
332 331 331 330 328 326 322 322 326 330 336 340 345 354 358 356 356 359 357 356 3 7 8 9 10 14 18 21 21 23 28 29 33 38 39 46 49 50 66 62 55 64 70 75 82 87 90 93 103 107 111 123 128 130 130 131 140 145 151 156 154 156 159 160 163 165 168 169 170 175 172 180 194 198 199 201 201 199 198 200 203 206 208 209 212 214 216 217
331 330 331 331 328 324 320 320 320 325 334 335 341 353 355 352 352 355 354 354 7 13 12 13 14 14 17 21 22 21 29 33 30 33 32 35 50 58 66 70 67 70 75 74 75 80 85 91 105 110 114 121 120 123 129 129 134 140 151 154 148 152 157 156 161 163 164 167 169 173 176 187 193 196 201 203 204 203 201 204 208 210 212 214 216 217 220 221
330 329 330 330 328 324 320 317 316 324 331 330 339 350 352 350 348 348 349 353 17 18 11 15 15 16 18 21 24 23 31 37 32 31 32 33 49 58 65 74 67 65 78 82 76 78 85 93 105 112 117 121 117 124 133 133 136 142 150 148 141 144 144 145 160 167 165 174 177 174 180 191 190 196 203 201 203 205 205 209 212 214 216 218 220 220 222 224
329 329 330 329 328 323 318 314 314 322 326 328 339 345 348 349 346 347 345 350 28 18 8 12 14 17 19 22 29 28 32 39 35 35 38 40 46 51 61 68 59 64 81 87 82 83 91 99 109 115 120 120 120 131 139 138 139 139 139 141 142 144 143 146 162 171 171 175 179 178 181 178 176 190 198 199 204 207 209 213 216 218 219 220 221 221 222 224
328 328 328 328 327 323 317 311 311 316 321 327 333 339 346 346 348 353 338 343 25 10 2 12 16 17 18 24 33 32 36 41 40 42 41 43 50 51 54 57 61 75 81 81 83 89 101 111 116 123 126 124 127 137 147 152 147 136 135 141 148 150 152 154 161 170 171 167 173 182 184 167 155 168 180 192 203 206 211 216 216 218 219 219 220 220 222 224
326 326 327 327 326 321 314 308 307 311 319 326 326 335 344 346 351 353 338 5 22 3 1 13 18 19 18 26 33 35 41 43 41 46 43 42 51 54 56 57 62 78 83 80 82 92 110 122 127 134 134 129 131 129 140 152 146 138 139 142 147 152 156 159 163 171 173 169 170 178 182 167 146 155 163 176 193 198 207 215 216 217 218 218 219 220 221 222
325 324 324 324 324 319 311 305 302 306 318 322 324 334 343 346 350 342 339 18 17 3 9 12 13 20 20 25 33 37 45 45 42 47 47 48 54 57 59 61 65 78 87 89 90 96 104 110 124 138 130 121 122 115 124 140 140 141 142 138 142 149 154 162 171 171 169 173 165 160 170 160 133 140 154 167 184 193 201 210 212 214 217 219 219 219 219 220
324 322 322 322 322 317 310 303 296 300 313 317 322 331 335 341 343 334 350 19 8 3 11 6 7 13 10 14 31 37 41 45 47 49 51 53 55 59 62 63 66 79 89 93 93 96 98 102 114 121 115 116 117 112 116 126 135 144 145 141 143 146 153 163 170 169 166 164 155 150 167 174 137 121 122 160 191 211 210 210 208 210 215 217 217 216 216 218
322 321 320 319 319 315 309 306 299 299 309 314 319 323 322 333 338 339 355 354 334 348 359 358 3 8 8 13 29 36 37 45 49 45 48 54 55 59 65 65 69 82 89 92 93 94 99 107 110 110 118 127 125 121 121 125 139 151 153 153 153 150 155 160 161 172 166 148 143 145 152 145 122 108 90 117 159 198 205 206 205 206 211 212 212 212 212 214
321 319 318 315 313 309 303 302 300 297 302 310 311 310 310 322 338 348 351 322 302 341 356 353 356 3 6 12 25 26 28 43 46 39 40 45 49 54 58 61 70 80 83 89 99 101 98 99 104 113 124 135 137 135 133 133 142 151 157 164 164 159 160 161 160 163 152 143 146 152 148 123 108 95 76 86 100 111 147 180 193 200 206 206 204 205 207 208
319 316 315 312 308 304 299 297 295 294 299 303 299 300 302 312 339 348 341 330 323 337 335 330 339 350 353 3 24 20 21 40 42 40 43 42 47 55 58 62 67 71 77 89 101 102 99 99 105 115 118 113 119 136 135 130 129 131 145 162 167 167 162 155 157 157 147 145 150 149 142 130 115 91 74 85 91 94 106 126 155 177 191 192 192 195 199 203
316 313 314 312 306 298 295 293 290 291 296 294 290 295 295 303 330 333 329 335 328 316 312 317 325 332 344 7 22 14 20 42 39 36 41 40 47 56 60 68 73 72 78 85 88 88 90 94 97 100 104 103 103 113 120 123 121 118 124 142 159 170 162 151 151 152 147 144 145 142 131 127 122 100 84 91 92 93 99 107 118 133 147 158 168 178 188 198
313 311 314 312 305 296 292 290 287 284 284 285 287 288 286 295 314 319 330 332 317 312 311 305 308 313 333 28 28 21 28 38 32 33 40 41 46 52 56 69 83 88 82 78 81 82 79 85 94 99 106 110 108 110 116 117 112 112 114 116 127 141 144 138 133 137 142 136 132 130 120 119 120 107 97 96 93 92 97 104 107 111 122 134 146 158 174 189
306 307 309 307 303 299 293 289 285 276 273 279 280 281 284 299 312 315 328 325 312 312 306 287 286 307 319 25 29 39 47 19 15 27 44 50 49 48 53 67 84 103 95 78 84 88 82 90 103 108 112 117 115 114 117 112 102 106 109 105 111 123 131 130 126 133 141 129 120 125 122 122 120 105 94 95 95 90 91 97 98 99 108 117 128 142 157 170
296 299 305 305 302 297 291 285 279 270 269 275 276 280 285 292 304 310 318 318 307 298 294 279 273 297 301 290 341 18 12 348 6 24 41 53 52 45 49 68 81 95 101 85 88 96 94 98 105 109 111 116 117 115 116 114 105 101 102 105 115 123 129 132 131 135 135 121 119 124 120 119 118 105 93 93 96 90 82 83 88 91 97 104 113 128 143 154
288 288 298 306 303 295 287 278 272 268 269 273 272 275 278 277 288 298 307 314 303 286 280 270 266 277 285 286 278 325 338 341 9 32 41 49 59 49 45 70 84 86 98 101 102 105 102 100 103 107 107 110 115 116 115 118 118 106 100 107 119 122 125 132 131 131 128 124 124 121 112 104 101 97 87 84 85 80 75 77 83 86 88 97 107 115 128 144
281 279 288 298 295 288 282 276 272 269 268 270 270 269 271 272 278 286 296 302 293 285 281 265 254 250 263 282 275 277 308 331 351 19 41 43 62 61 50 68 89 88 100 114 109 106 103 100 103 106 105 108 115 114 107 113 120 118 110 112 118 115 115 123 126 127 129 130 133 129 120 103 91 87 83 82 78 69 69 76 81 81 81 86 94 103 116 130
275 276 282 284 282 283 281 274 269 266 265 271 275 274 271 272 276 281 290 291 280 280 283 270 255 247 252 263 259 260 265 272 311 342 47 50 73 83 63 63 79 89 106 125 116 105 105 103 106 112 113 113 114 107 100 107 116 122 120 118 120 118 115 119 124 128 132 135 137 134 125 108 98 96 88 85 82 73 69 74 78 76 73 73 73 76 87 104
271 274 276 272 273 281 279 270 267 267 268 272 273 272 272 273 275 276 277 274 267 271 278 272 260 251 254 253 244 252 259 250 252 260 82 71 86 92 63 51 63 91 112 132 123 107 107 109 113 120 120 109 101 101 108 111 110 115 118 117 121 125 123 123 127 131 131 133 137 136 126 113 107 107 96 86 84 77 67 69 76 70 65 65 65 63 62 65
268 271 270 264 269 278 274 269 270 270 268 272 272 271 273 272 269 270 267 259 257 259 264 264 256 248 250 250 245 248 253 246 236 231 205 92 82 84 53 41 52 87 113 129 123 111 114 125 121 115 108 100 101 109 120 121 118 116 113 113 120 125 121 117 127 137 135 132 137 135 126 120 115 110 104 93 85 78 64 62 70 69 64 63 61 60 56 52
268 272 266 261 268 275 272 268 269 268 267 274 275 268 267 265 264 266 263 256 255 255 255 258 256 248 244 245 245 244 246 244 236 228 218 212 170 108 53 26 34 71 111 124 131 128 133 143 133 122 115 112 115 120 123 127 131 124 113 109 110 117 119 108 117 137 142 142 146 143 134 136 134 121 115 108 98 89 73 61 63 67 65 59 56 53 49 45
270 270 262 260 267 271 271 269 268 268 270 276 274 266 260 259 261 264 262 257 256 254 254 257 257 251 245 244 245 245 244 238 233 230 223 220 209 186 232 358 19 62 111 116 133 139 145 147 142 144 141 138 139 139 137 134 129 118 111 108 102 111 126 122 120 137 144 147 156 154 143 144 147 134 125 123 117 103 82 66 59 57 50 44 44 42 41 38
265 263 261 261 264 268 270 271 271 270 273 277 276 270 260 254 254 259 260 258 255 254 255 254 253 251 245 243 244 244 242 236 234 233 228 225 221 215 226 285 353 42 107 163 203 170 157 149 156 170 158 156 160 147 138 136 131 124 117 115 112 111 127 141 146 151 151 148 151 147 142 143 146 141 131 131 130 113 88 69 58 51 41 34 32 30 30 28
263 259 260 258 260 265 264 265 267 266 271 277 276 270 263 256 250 250 253 253 251 253 254 251 250 249 245 246 248 246 244 240 236 236 235 232 225 220 227 241 252 302 147 188 208 190 163 150 160 158 126 150 153 129 131 151 148 138 122 111 119 126 159 199 184 159 151 147 133 129 143 146 143 142 141 138 134 123 99 66 51 44 36 32 31 29 26 21
263 260 263 261 259 260 257 256 261 263 266 272 273 269 264 261 256 249 248 250 252 253 252 249 250 250 248 252 254 250 248 243 236 236 238 236 231 228 228 227 229 233 204 197 200 200 189 173 170 139 112 130 135 126 131 140 135 132 116 98 99 140 168 156 138 130 148 157 148 145 150 150 146 152 153 147 147 148 114 47 36 33 30 31 33 30 27 20
264 261 263 263 259 258 257 259 264 264 261 264 267 267 265 264 263 257 253 251 252 253 251 246 246 250 251 253 252 249 249 245 238 236 236 236 236 232 224 221 225 235 228 213 210 217 214 200 194 178 147 144 146 140 140 134 129 123 103 89 79 94 113 110 107 99 97 143 151 153 151 146 151 160 158 157 166 165 130 34 22 21 19 22 24 22 22 16
266 262 259 257 257 260 262 263 265 262 259 262 264 264 267 267 265 262 259 255 252 252 253 250 250 252 250 248 248 248 250 248 239 236 238 239 239 234 226 223 226 233 235 227 220 225 226 215 205 190 165 163 172 166 160 148 136 119 96 92 97 101 103 99 94 91 94 115 134 143 142 141 157 168 168 174 181 174 166 38 10 8 3 3 6 9 10 7
270 267 262 256 254 256 259 259 259 257 255 258 262 265 268 267 269 270 263 258 256 255 255 254 255 255 250 246 245 245 251 253 244 240 243 241 237 234 230 229 231 236 238 232 227 227 227 222 214 205 191 186 189 186 182 172 153 133 109 105 122 124 122 119 116 114 121 131 140 147 150 157 175 181 179 186 192 192 197 316 349 345 342 343 347 350 350 349
275 270 266 261 255 253 256 256 257 257 256 257 262 268 270 270 277 276 264 256 256 257 258 258 258 255 246 242 243 247 256 260 252 247 245 242 239 238 235 235 240 242 237 233 232 230 227 223 219 220 218 201 193 192 187 182 171 153 139 145 168 173 176 178 198 214 187 165 166 175 182 188 194 194 193 198 206 216 246 290 306 309 316 321 324 326 328 329
279 268 264 264 258 255 257 256 255 258 258 259 264 268 271 273 277 275 266 255 251 254 259 260 259 255 246 240 243 252 260 262 258 253 247 241 240 240 240 240 242 241 236 234 234 231 229 223 219 227 228 208 200 200 195 200 205 197 205 242 229 199 190 189 196 203 201 204 212 217 210 202 203 207 209 214 222 239 260 271 277 284 293 301 306 309 312 314